Погода в Петрозаводске

Хотите узнать прогноз погоды в Петрозаводске? Тогда Вам сюда: Погода в Петрозаводске

Поиск расширенной информации на нашем сайте:

Полезная информация:

Новости сайта



02.01.2020
Опубликован Долгосрочный прогноз погоды по городам России и ближнего зарубежья на январь 2020 года.
Карты: Прогноз на январь и февраль 2020 года, Сравнение прогнозируемой аномалии приземной температуры воздуха на январь 2020 года по разным моделям.




Погода в Петрозаводске - сегодня

Время (UTC), дата Ветер
(°,м/с) 
Видим.   Явления Облачность Т
(°С)
Тd
(°С)
f(%) Тe
(°С)
Pmin
(гПа)
dP
(гПа)
Po
(мм)
O2
(г/м3)
Тmin Tmax R s Состояние
почвы
18 24.01.20 270 (З) 4{10}  20000 м    10/10 330 м 
[Sc]
-2.1 -3.8 88 -5  990.1  1.1  732  298    +0.7  0.0     
21 24.01.20 270 (З) 5{10}  20000 м    10/10 450 м 
[Sc]
-1.9 -4.4 83 -5  989.9  -0.2  732  298           
00 25.01.20 260 (З) 20000 м    ясно 
-3.1 -5 87 -6  988.4  -1.6  731  298           
03 25.01.20 260 (З) 4{10}  20000 м  в посл. час снег  10/8 300 м средняя 
[Sc|As op]
-2.8 -4.1 91 -6  986.6  -1.7  730  298  -3.5    0.0     
06 25.01.20 250 (З) 20000 м  {снег}  10/8 1500 м средняя 
[Sc|As op]
-2.5 -3.8 91 -5  985.4  -1.2  729  297  -3.5    0.0  равномерный
сухой снег
100% 
09 25.01.20 280 (З) 11000 м  слаб. снег  10/10 270 м 
[Sc]
-1.9 -2.6 95 -5  986.2  0.8  730  296           
12 25.01.20 290 (З) 20000 м  в посл. час снег  10/10 540 м 
[Sc]
-1.6 -3.3 88 -4  989.1  2.9  732  297           
15 25.01.20 320 (СЗ) 3{10}  20000 м    10/10 720 м 
[Sc]
-2.4 -6.3 75 -4  993  3.8  735  299      0.3     
18 25.01.20 320 (СЗ) 20000 м    10/10 660 м 
[Sc]
-3 -6.6 76 -5  996.3  3.2  737  301    -1.4  0.3     
21 25.01.20 320 (СЗ) 3{10}  20000 м    10/10 540 м 
[Sc]
-4 -6.8 81 -6  999.2  2.8  739  303           
00 26.01.20 300 (СЗ) 20000 м    10/10 750 м 
[Sc]
-4.9 -9.2 72 -8  1001.8  2.5  741  305           
03 26.01.20 280 (З) 20000 м    10/10 570 м 
[Sc]
-7.4 -10.4 79 -10  1003.1  1.2  742  308  -7.4         
06 26.01.20 260 (З) 20000 м    10/10 450 м 
[Sc]
-6.7 -8.9 84 -8  1002.9  -0.2  742  307  -7.9      равномерный
сухой снег
100% 
09 26.01.20 210 (ЮЗ) 17000 м  слаб. снег  10/8 300 м средняя 
[Sc|As op]
-5.5 -7.3 87 -5  1001.2  -1.6  740  305           
12 26.01.20 070 (В) 1300 м  сильн. снег  10/0 средняя 
[As op]
-5 -5.7 95 -6  999.4  -1.7  739  304           
15 26.01.20 350 (С) 10 км  слаб. снег  10/4 600 м средняя 
[Sc|Ac As]
-6.1 -6.8 95 -8  1001.2  1.7  740  306         
18 26.01.20 310 (СЗ) 20000 м  {снег}  6/6 300 м 
[Sc]
-8.6 -9.5 93 -10  1004.5  3.1  743  310    -4.8     
21 26.01.20 280 (З) 20000 м    ясно 
-11 -13 85 -15  1007.2  2.5  745  314           
00 27.01.20 300 (СЗ) 20000 м    3/3 600 м 
[Sc]
-13.3 -14.8 88 -15  1010.6  3.3  747  318           
03 27.01.20 280 (З) 20000 м    4/4 600 м 
[Sc]
-15.1 -16.6 88 -17  1013.4  2.6  749  321  -15.3    0.0     
06 27.01.20 240 (ЮЗ) 20000 м    ясно 
-16.9 -18.5 87 -19  1015.8  2.3  751  324  -17.1      равномерный
сухой снег
100% 
09 27.01.20 230 (ЮЗ) 20000 м    3/0 верхняя 
[Ci fib]
-14.5 -16.3 86 -15  1017.5  1.8  752  321           
12 27.01.20 300 (СЗ) 20000 м    3/0 верхняя 
[Ci fib]
-14 -15.6 88 -14  1017.8  0.3  752  321           
15 27.01.20 тихо ()   20000 м    10/0 верхняя 
[Cs]
-14.8 -16.2 89 -15  1018.5  0.7  753  322           
18 27.01.20 180 (Ю) 20000 м  {снег}  10/0 средняя 
[As op]
-12.6 -13.9 90 -13  1017.6  -0.8  752  319    -12.6  0.0     
Время (UTC), дата Ветер
(°,м/с) 
Видим.   Явления Облачность Т
(°С)
Тd
(°С)
f(%) Тe
(°С)
Pmin
(гПа)
dP
(гПа)
Po
(мм)
O2
(г/м3)
Тmin Tmax R s Состояние
почвы

Для получения пояснительной информации подведите курсор к названию столбца.

ПОГОДА в Петрозаводске - архив

Всё, что Вы хотите узнать о погоде в Петрозаводске - удобно и подробно!

Выберите нужную дату (начиная с 1 января 2019* года) и нажмите кнопку "Найти".
Будут отображены архивные сводки погоды по пункту Петрозаводск, начиная с указанной даты.


Отображать данные в формате CSV (для использования в таблицах Excel)


Внимание! Наш архив погоды предназначен исключительно для личного некоммерческого использования в познавательных целях. Если Вам необходимы официальные справки о состоянии погоды (для производственных, юридических, коммерческих и т.п. целей), обращайтесь в органы Росгидромета.

*Примечание: данная дата относится к архиву по метеостанциям СССР (Россия, СНГ, Балтия).
Архив по метеостанциям Зарубежной Европы и Азии (кроме Китая) хранится 10 дней, по другим регионам земного шара (Китай, Африка, Америка, Австралия, Океания) - 1 день.

Петрозаводск - район местоположения метеостанции


Название, широта, долгота, высота метеостанции:
Петрозаводск 61.8°ш. 34.3°д. 110 м над ур. моря [Российская Федерация]

Дополнительная информация

В oтличие oт бoльшинства пoгoдных сайтoв мы публикуем пoдрoбную метеoинфoрмацию в детальнoм прoфессиoнальнoм фoрмате.

Характеристики температуры и влажнoсти вoздуха измеряются на высoте 2 м в тени вдали oт зданий и деревьев.
Скoрoсть ветра измеряется на высoте 10 м (на урoвне рoста челoвека скoрoсть ветра ниже в 1.5-2 раза). Если метеoстанция нахoдится в гoрoде или в лесу, тo скoрoсть ветра занижена на 2-4 м/с пo сравнению с oткрытым местoм. Скoрoсть ветра над акватoриями крупных рек и oзёр, а также на вершинах хoлмoв на 2-5 м/с выше, чем в oбычных услoвиях.
Атмoсфернoе давление в разных тoчках местнoсти мoжет значительнo oтличаться oт давления на метеoстанции, в зависимoсти oт услoвий рельефа (при пoдъёме на 10 м давление пoнижается примернo на 1 мм рт.ст.).